COSMOS 1275 DEB, 14557

Orbit data source: Space-Track

COSMOS 1275 DEB, 14557 is space debris in LEO originally from a launch on Thu, 04 Jun 1981 UTC launched from the Plesetsk Missile And Space Complex (PKMTR). Debris objects in space refer to the collection of defunct objects orbiting the Earth. Examples of debris include non-operational satellites, rocket bodies, and fragments generated from explosions, collisions, or faulty payload assembly.

Loading next visibility...
Identifier
14557, 1981-053JM
Orbit
LEO
Country
Flag of CISCIS
Related business
Manufacturer
Unknown
Mission
Spacecraft
Bus & Motor
Unknown
Mass
Unknown
Launch date (UTC)
1981-06-04 (45 years ago)
Launch vehicle
Unknown
Launch site
Plesetsk Missile And Space Complex (PKMTR)
Object type
Payload
Rocket body
Debris
Shape & HBR
Unknown shape, 0.1 m
Radar Cross Section
Small (<0.1 m²)

Expand to show TLE details & history
Last TLE update: 1 day ago

TLE from 1 day ago
0 COSMOS 1275 DEB
1 14557U 81053JM  25352.36781992  .00004758  00000-0  18111-2 0  9999
2 14557  82.7884 116.8612 0036020  89.5723 325.1082 14.30402645253955
Epoch: 2025-12-18T08:49Z
TLE epoch observation values (Epoch: 2025-12-18T08:49:39.641Z)
Latitude
53.91482°
Longitude
-92.83393°
Altitude
778.106 km
Speed
7.481 km/s
True Right ascension
08h 27m 13s
True Declination
53° 45' 05"
Sunlit
Object was in full shadow at epoch
Visualization orbit readout
Latitude
Unknown
Longitude
Unknown
Altitude
Unknown
Speed
Unknown
Apparent Right ascension
Unknown
Apparent Declination
Unknown
Sunlit
N/A
Visualization observer readout
Local Sidereal Time
15:58:09
Azimuth
Unknown
Elevation
Unknown
Doppler factor
Unknown
Orbital elements
Apogee altitude
813.274 km
Perigee altitude
761.653 km
Semi-major axis
7,165.601 km
Eccentricity
0.0036
Inclination
82.7884°
RAAN
116.8612°
Arg. of periapsis
89.5723°
True anomaly
324.87122°
Mean anomaly
325.1082°
Eccentric anomaly
324.9898°
Mean motion
3.5782 °/min
Orbital period
100.61 mins
BSTAR
0.0018111
Loading maneuver chart data...
Computing Atmospheric mass density...

Documentation

Showing up to 5 results
|